Gustavus, AK

7:13 PM AKDT on August 22, 2017 (GMT -0800)
Gustavus

Weather History for PAGS - February, 2014

Change the Weather History Date:

Thursday, February 27, 2014

  Actual Average Record
Temperature  
Mean Temperature 29 °F -  
Max Temperature 44 °F 41 °F 53 °F (1968)
Min Temperature 14 °F 33 °F 0 °F (1956)
Degree Days  
Heating Degree Days 36    
Moisture  
Dew Point 20 °F    
Average Humidity 78    
Maximum Humidity 100    
Minimum Humidity 46    
Precipitation  
Precipitation 0.00 in - - ()
Sea Level Pressure  
Sea Level Pressure 29.89 in    
Wind  
Wind Speed 3 mph (NNW)    
Max Wind Speed 7 mph    
Max Gust Speed -    
Visibility 10 miles    
Events      
Averages and records for this station are not official NWS values.
T = Trace of Precipitation, MM = Missing Value Source: NWS Daily Summary

Daily Weather History Graph

Daily Weather History Graph

Search for Another Location

Airport or City:

Trip Planner

Search our weather history database for the weather conditions in past years. The results will help you decide how hot, cold, wet, or windy it might be!

Date:

Astronomy

Feb. 27, 2014 Rise Set
Actual Time 7:03 AM AKST 5:28 PM AKST
Civil Twilight 6:23 AM AKST 6:09 PM AKST
Nautical Twilight 5:37 AM AKST 6:55 PM AKST
Astronomical Twilight 4:50 AM AKST 7:41 PM AKST
Moon 5:56 AM AKST (2/27) 3:53 PM AKST (2/27)
Length of Visible Light 11h 45m
Length of Day
10h 25m
Waning Crescent, 3% of the Moon is Illuminated
Feb 27
Waning Crescent
Feb 28
New
Mar 8
First Quarter
Mar 16
Full
Mar 23
Last Quarter

Hourly Weather History & Observations

Time (AKST) Temp. Windchill Dew Point Humidity Pressure Visibility Wind Dir Wind Speed Gust Speed Precip Events Conditions
12:16 AM 19.4 °F 14.3 °F 19.4 °F 100% 29.83 in 10.0 mi NNE 3.5 mph - N/A   Clear
12:36 AM 21.2 °F 14.9 °F 17.6 °F 86% 29.82 in 10.0 mi NNW 4.6 mph - N/A   Clear
12:56 AM 19.4 °F - 17.6 °F 93% 29.82 in 10.0 mi Calm Calm - N/A   Clear
1:16 AM 19.4 °F 14.3 °F 15.8 °F 86% 29.82 in 10.0 mi North 3.5 mph - N/A   Clear
1:36 AM 19.4 °F - 19.4 °F 100% 29.82 in 10.0 mi Calm Calm - N/A   Clear
1:56 AM 19.4 °F - 17.6 °F 93% 29.82 in 10.0 mi Calm Calm - N/A   Clear
2:16 AM 19.4 °F 12.8 °F 17.6 °F 93% 29.82 in 10.0 mi North 4.6 mph - N/A   Clear
2:36 AM 19.4 °F 14.3 °F 19.4 °F 100% 29.82 in 10.0 mi North 3.5 mph - N/A   Clear
2:56 AM 17.6 °F 12.3 °F 14.0 °F 86% 29.82 in 10.0 mi NNW 3.5 mph - N/A   Clear
3:16 AM 17.6 °F 10.7 °F 14.0 °F 86% 29.82 in 10.0 mi North 4.6 mph - N/A   Clear
3:36 AM 17.6 °F 12.3 °F 15.8 °F 93% 29.82 in 10.0 mi NNW 3.5 mph - N/A   Clear
3:56 AM 17.6 °F 12.3 °F 15.8 °F 93% 29.82 in 10.0 mi North 3.5 mph - N/A   Clear
4:16 AM 17.6 °F - 15.8 °F 93% 29.82 in 10.0 mi Calm Calm - N/A   Clear
4:36 AM 17.6 °F 9.3 °F 15.8 °F 93% 29.82 in 10.0 mi North 5.8 mph - N/A   Clear
4:56 AM 15.8 °F - 10.4 °F 79% 29.83 in 10.0 mi Calm Calm - N/A   Clear
5:16 AM 17.6 °F - 15.8 °F 93% 29.83 in 10.0 mi North - - N/A   Clear
5:36 AM 15.8 °F 8.6 °F 14.0 °F 93% 29.83 in 10.0 mi North 4.6 mph - N/A   Clear
5:56 AM 15.8 °F 8.6 °F 12.2 °F 86% 29.84 in 10.0 mi NNW 4.6 mph - N/A   Clear
6:16 AM 15.8 °F - 10.4 °F 79% 29.84 in 10.0 mi Calm Calm - N/A   Clear
6:36 AM 14.0 °F 6.5 °F 10.4 °F 86% 29.84 in 10.0 mi North 4.6 mph - N/A   Clear
6:56 AM 15.8 °F 10.2 °F 12.2 °F 86% 29.85 in 10.0 mi North 3.5 mph - N/A   Clear
7:16 AM 15.8 °F 6.1 °F 12.2 °F 86% 29.85 in 10.0 mi North 6.9 mph - N/A   Clear
7:36 AM 15.8 °F - 12.2 °F 86% 29.85 in 10.0 mi Calm Calm - N/A   Clear
7:56 AM 15.8 °F 7.2 °F 12.2 °F 86% 29.86 in 10.0 mi North 5.8 mph - N/A   Clear
8:16 AM 15.8 °F 10.2 °F 12.2 °F 86% 29.87 in 10.0 mi NNW 3.5 mph - N/A   Clear
8:36 AM 17.6 °F 12.3 °F 14.0 °F 86% 29.87 in 10.0 mi NW 3.5 mph - N/A   Clear
8:56 AM 19.4 °F 12.8 °F 19.4 °F 100% 29.88 in 10.0 mi NNW 4.6 mph - N/A   Clear
9:16 AM 21.2 °F 14.9 °F 19.4 °F 93% 29.88 in 10.0 mi North 4.6 mph - N/A   Clear
9:36 AM 24.8 °F - 21.2 °F 86% 29.88 in 10.0 mi Calm Calm - N/A   Clear
9:56 AM 26.6 °F - 24.8 °F 93% 29.89 in 10.0 mi Calm Calm - N/A   Clear
10:16 AM 30.2 °F - 24.8 °F 80% 29.89 in 10.0 mi Calm Calm - N/A   Clear
10:36 AM 33.8 °F - 26.6 °F 75% 29.90 in 10.0 mi Calm Calm - N/A   Clear
10:56 AM 37.4 °F - 26.6 °F 65% 29.90 in 10.0 mi Calm Calm - N/A   Clear
11:16 AM 39.2 °F - 24.8 °F 56% 29.90 in 10.0 mi Calm Calm - N/A   Clear
11:36 AM 41.0 °F - 24.8 °F 53% 29.90 in 10.0 mi Calm Calm - N/A   Clear
11:56 AM 42.8 °F - 24.8 °F 49% 29.90 in 10.0 mi Calm Calm - N/A   Clear
12:16 PM 41.0 °F 39.0 °F 26.6 °F 57% 29.90 in 10.0 mi SE 3.5 mph - N/A   Clear
12:36 PM 42.8 °F 41.1 °F 24.8 °F 49% 29.91 in 10.0 mi ESE 3.5 mph - N/A   Clear
1:16 PM 44.6 °F - 24.8 °F 46% 29.90 in 10.0 mi Calm Calm - N/A   Clear
1:36 PM 42.8 °F - 24.8 °F 49% 29.91 in 10.0 mi Calm Calm - N/A   Clear
1:56 PM 44.6 °F - 24.8 °F 46% 29.90 in 10.0 mi Calm Calm - N/A   Clear
2:16 PM 42.8 °F 38.6 °F 26.6 °F 53% 29.91 in 10.0 mi SW 6.9 mph - N/A   Clear
2:36 PM 42.8 °F 38.6 °F 24.8 °F 49% 29.91 in 10.0 mi WSW 6.9 mph - N/A   Clear
2:56 PM 42.8 °F 39.3 °F 24.8 °F 49% 29.91 in 10.0 mi SW 5.8 mph - N/A   Clear
3:16 PM 42.8 °F 40.1 °F 24.8 °F 49% 29.91 in 10.0 mi SW 4.6 mph - N/A   Clear
3:36 PM 42.8 °F 40.1 °F 24.8 °F 49% 29.91 in 10.0 mi SW 4.6 mph - N/A   Clear
3:56 PM 42.8 °F 41.1 °F 24.8 °F 49% 29.92 in 10.0 mi SW 3.5 mph - N/A   Clear
4:16 PM 42.8 °F 41.1 °F 24.8 °F 49% 29.91 in 10.0 mi SW 3.5 mph - N/A   Clear
4:36 PM 41.0 °F 36.4 °F 23.0 °F 49% 29.92 in 10.0 mi WSW 6.9 mph - N/A   Clear
4:56 PM 39.2 °F - 24.8 °F 56% 29.92 in 10.0 mi Calm Calm - N/A   Clear
5:16 PM 35.6 °F - 24.8 °F 65% 29.93 in 10.0 mi Calm Calm - N/A   Clear
5:36 PM 33.8 °F - 26.6 °F 75% 29.93 in 10.0 mi Calm Calm - N/A   Clear
5:56 PM 30.2 °F - 28.4 °F 93% 29.93 in 10.0 mi Calm Calm - N/A   Clear
6:16 PM 30.2 °F - 26.6 °F 86% 29.93 in 10.0 mi Calm Calm - N/A   Clear
6:36 PM 28.4 °F - 26.6 °F 93% 29.93 in 10.0 mi Calm Calm - N/A   Clear
6:56 PM 28.4 °F - 24.8 °F 86% 29.94 in 10.0 mi Calm Calm - N/A   Clear
7:16 PM 26.6 °F 22.6 °F 23.0 °F 86% 29.94 in 10.0 mi North 3.5 mph - N/A   Clear
7:36 PM 28.4 °F 24.6 °F 24.8 °F 86% 29.94 in 10.0 mi North 3.5 mph - N/A   Clear
7:56 PM 26.6 °F - 24.8 °F 93% 29.94 in 10.0 mi Calm Calm - N/A   Clear
8:16 PM 26.6 °F - 24.8 °F 93% 29.95 in 10.0 mi Calm Calm - N/A   Clear
8:36 PM 26.6 °F - 23.0 °F 86% 29.95 in 10.0 mi Calm Calm - N/A   Clear
8:56 PM 24.8 °F - 21.2 °F 86% 29.95 in 10.0 mi Calm Calm - N/A   Clear
9:16 PM 24.8 °F - 23.0 °F 93% 29.95 in 10.0 mi Calm Calm - N/A   Clear
9:36 PM 24.8 °F - 21.2 °F 86% 29.96 in 10.0 mi Calm Calm - N/A   Clear
10:16 PM 23.0 °F - 19.4 °F 86% 29.97 in 9.0 mi Calm Calm - N/A   Clear
10:56 PM 21.2 °F - 19.4 °F 93% 29.97 in 10.0 mi Calm Calm - N/A   Clear
11:16 PM 21.2 °F - 19.4 °F 93% 29.97 in 10.0 mi Calm Calm - N/A   Clear